Time,TemperatureF,DewpointF,PressureIn,WindDirection,WindDirectionDegrees,WindSpeedMPH,WindSpeedGustMPH,Humidity,HourlyPrecipIn,Conditions,Clouds,dailyrainin,SoftwareType,DateUTC
2013-09-05 00:13:00,47.0,42.0,30.14,NNW,338,0.0,0.0,83,0.00,,,0.05,,2013-09-05 04:13:00,
2013-09-05 00:24:00,46.0,41.0,30.14,NNW,338,0.0,0.0,83,0.00,,,0.05,,2013-09-05 04:24:00,
2013-09-05 00:53:00,46.0,41.0,30.15,NNW,338,0.0,0.0,83,0.00,,,0.05,,2013-09-05 04:53:00,
2013-09-05 01:23:00,45.0,40.0,30.15,NNW,338,0.0,0.0,83,0.00,,,0.05,,2013-09-05 05:23:00,
2013-09-05 01:52:00,45.0,40.0,30.15,NNW,338,0.0,0.0,84,0.00,,,0.05,,2013-09-05 05:52:00,
2013-09-05 02:12:00,45.0,40.0,30.16,NNW,338,0.0,0.0,84,0.00,,,0.05,,2013-09-05 06:12:00,
2013-09-05 02:22:00,45.0,40.0,30.16,NNW,338,0.0,0.0,84,0.00,,,0.05,,2013-09-05 06:22:00,
2013-09-05 02:52:00,45.0,41.0,30.16,NNW,338,0.0,0.0,85,0.00,,,0.05,,2013-09-05 06:52:00,
2013-09-05 03:12:00,44.0,40.0,30.16,NNW,338,0.0,0.0,85,0.00,,,0.05,,2013-09-05 07:12:00,
2013-09-05 03:23:00,44.0,40.0,30.17,North,0,0.0,0.0,85,0.00,,,0.05,,2013-09-05 07:23:00,
2013-09-05 03:52:00,44.0,40.0,30.18,North,0,0.0,0.0,85,0.00,,,0.05,,2013-09-05 07:52:00,
2013-09-05 04:22:00,44.0,40.0,30.18,North,0,0.0,0.0,86,0.00,,,0.05,,2013-09-05 08:22:00,
2013-09-05 04:52:00,44.0,40.0,30.18,North,0,0.0,0.0,86,0.00,,,0.05,,2013-09-05 08:52:00,
2013-09-05 05:11:00,44.0,40.0,30.18,North,0,0.0,0.0,86,0.00,,,0.05,,2013-09-05 09:11:00,
2013-09-05 05:22:00,44.0,40.0,30.19,North,0,0.0,0.0,86,0.00,,,0.05,,2013-09-05 09:22:00,
2013-09-05 05:54:00,44.0,40.0,30.20,North,0,0.0,0.0,86,0.00,,,0.05,,2013-09-05 09:54:00,
2013-09-05 06:12:00,43.0,39.0,30.21,North,0,0.0,0.0,86,0.00,,,0.05,,2013-09-05 10:12:00,
2013-09-05 06:23:00,43.0,39.0,30.20,North,0,0.0,0.0,86,0.00,,,0.05,,2013-09-05 10:23:00,
2013-09-05 06:53:00,43.0,39.0,30.21,ENE,68,0.0,0.0,86,0.00,,,0.00,,2013-09-05 10:53:00,
2013-09-05 07:12:00,43.0,39.0,30.21,ENE,68,0.0,0.0,86,0.00,,,0.00,,2013-09-05 11:12:00,
2013-09-05 07:22:00,43.0,39.0,30.21,ENE,68,0.0,0.0,86,0.00,,,0.00,,2013-09-05 11:22:00,
2013-09-05 07:52:00,42.0,38.0,30.23,ENE,68,26.0,47.0,86,0.00,,,0.00,,2013-09-05 11:52:00,
2013-09-05 08:12:00,42.0,38.0,30.23,ENE,68,0.0,45.0,86,0.00,,,0.00,,2013-09-05 12:12:00,
2013-09-05 08:21:00,43.0,39.0,30.23,ENE,68,0.0,47.0,87,0.00,,,0.00,,2013-09-05 12:21:00,
2013-09-05 08:52:00,44.0,40.0,30.24,ENE,68,0.0,0.0,87,0.00,,,0.00,,2013-09-05 12:52:00,
2013-09-05 09:12:00,44.0,40.0,30.24,ENE,68,0.0,0.0,87,0.00,,,0.00,,2013-09-05 13:12:00,
2013-09-05 09:21:00,46.0,43.0,30.24,ENE,68,0.0,0.0,88,0.00,,,0.00,,2013-09-05 13:21:00,
2013-09-05 09:53:00,48.0,45.0,30.24,ESE,112,0.0,0.0,88,0.00,,,0.00,,2013-09-05 13:53:00,
2013-09-05 10:22:00,52.0,49.0,30.24,ESE,112,0.0,0.0,88,0.00,,,0.00,,2013-09-05 14:22:00,
2013-09-05 10:52:00,59.0,54.0,30.25,West,270,0.0,0.0,84,0.00,,,0.00,,2013-09-05 14:52:00,
2013-09-05 11:22:00,63.0,52.0,30.25,NNW,336,0.0,0.0,67,0.00,,,0.00,,2013-09-05 15:22:00,
2013-09-05 14:12:00,70.0,51.0,30.22,North,1,1.0,24.0,51,0.00,,,0.00,,2013-09-05 18:12:00,
2013-09-05 14:22:00,70.0,52.0,30.23,NNW,338,0.0,46.0,53,0.00,,,0.00,,2013-09-05 18:22:00,
2013-09-05 14:52:00,69.0,51.0,30.21,South,180,1.0,2.0,52,0.00,,,0.00,,2013-09-05 18:52:00,
2013-09-05 15:11:00,69.0,51.0,30.21,SSE,158,1.0,1.0,53,0.00,,,0.00,,2013-09-05 19:11:00,
2013-09-05 15:22:00,68.0,51.0,30.21,WNW,292,2.0,2.0,54,0.00,,,0.00,,2013-09-05 19:22:00,
2013-09-05 15:42:00,68.0,51.0,30.21,NNE,15,0.0,22.0,55,0.00,,,0.00,,2013-09-05 19:42:00,
2013-09-05 15:52:00,67.0,50.0,30.20,NNE,19,0.0,0.0,55,0.00,,,0.00,,2013-09-05 19:52:00,
2013-09-05 16:22:00,66.0,50.0,30.19,NE,54,0.0,5.0,56,0.00,,,0.00,,2013-09-05 20:22:00,
2013-09-05 16:52:00,65.0,49.0,30.20,NNE,30,0.0,1.0,57,0.00,,,0.00,,2013-09-05 20:52:00,
2013-09-05 17:21:00,65.0,49.0,30.19,SE,135,1.0,1.0,57,0.00,,,0.00,,2013-09-05 21:21:00,
2013-09-05 17:54:00,64.0,49.0,30.19,SE,132,1.0,3.0,58,0.00,,,0.00,,2013-09-05 21:54:00,
2013-09-05 18:13:00,64.0,49.0,30.19,SSE,158,0.0,1.0,58,0.00,,,0.00,,2013-09-05 22:13:00,
2013-09-05 18:24:00,64.0,49.0,30.18,SSE,158,0.0,1.0,58,0.00,,,0.00,,2013-09-05 22:24:00,
2013-09-05 18:53:00,63.0,50.0,30.17,ESE,112,2.0,2.0,62,0.00,,,0.00,,2013-09-05 22:53:00,
2013-09-05 19:12:00,63.0,50.0,30.17,SE,135,0.0,1.0,62,0.00,,,0.00,,2013-09-05 23:12:00,
2013-09-05 19:22:00,62.0,50.0,30.17,SE,135,7.0,44.0,65,0.00,,,0.00,,2013-09-05 23:22:00,
2013-09-05 19:53:00,61.0,50.0,30.16,SE,135,0.0,51.0,66,0.00,,,0.00,,2013-09-05 23:53:00,
2013-09-05 20:12:00,60.0,49.0,30.15,East,90,0.0,1.0,67,0.00,,,0.00,,2013-09-06 00:12:00,
2013-09-05 20:22:00,59.0,49.0,30.15,SE,135,0.0,41.0,69,0.00,,,0.00,,2013-09-06 00:22:00,
2013-09-05 20:42:00,58.0,49.0,30.14,ESE,112,0.0,0.0,71,0.00,,,0.00,,2013-09-06 00:42:00,
2013-09-05 20:52:00,57.0,48.0,30.14,SSW,202,0.0,52.0,72,0.00,,,0.00,,2013-09-06 00:52:00,
2013-09-05 21:11:00,56.0,48.0,30.13,SE,135,1.0,1.0,74,0.00,,,0.00,,2013-09-06 01:11:00,
2013-09-05 21:22:00,55.0,47.0,30.13,SE,135,0.0,1.0,74,0.00,,,0.00,,2013-09-06 01:22:00,
2013-09-05 21:42:00,55.0,47.0,30.13,SE,135,0.0,0.0,74,0.00,,,0.00,,2013-09-06 01:42:00,
2013-09-05 21:52:00,54.0,46.0,30.12,East,90,0.0,0.0,75,0.00,,,0.00,,2013-09-06 01:52:00,
2013-09-05 22:22:00,53.0,46.0,30.12,ESE,114,41.0,55.0,78,0.00,,,0.00,,2013-09-06 02:22:00,
2013-09-05 22:42:00,52.0,46.0,30.13,SE,135,0.0,41.0,79,0.00,,,0.00,,2013-09-06 02:42:00,
2013-09-05 22:52:00,52.0,46.0,30.12,SE,135,6.0,56.0,79,0.00,,,0.00,,2013-09-06 02:52:00,
2013-09-05 23:22:00,52.0,46.0,30.11,SE,125,0.0,0.0,81,0.00,,,0.00,,2013-09-06 03:22:00,
2013-09-05 23:55:00,51.0,46.0,30.10,West,275,0.0,0.0,82,0.00,,,0.00,,2013-09-06 03:55:00,